Clarksburg, WV

7:16 AM EDT on October 21, 2019 (GMT -0400)
Benedum

Weather History for KCKB - September, 2019

Change the Weather History Date:

Saturday, September 21, 2019

  Actual Average Record
Temperature  
Mean Temperature 76 °F -  
Max Temperature 90 °F 76 °F 93 °F (1925)
Min Temperature 61 °F 53 °F 30 °F (1962)
Cooling Degree Days 11    
Month to date cooling degree days 177  
Year to date cooling degree days 1214  
Growing Degree Days 25 (Base 50)    
Moisture  
Dew Point 62 °F    
Average Humidity 65    
Maximum Humidity 90    
Minimum Humidity 40    
Precipitation  
Precipitation 0.00 in - - ()
Month to date precipitation 0.06  
Year to date precipitation 31.57  
Sea Level Pressure  
Sea Level Pressure 30.19 in    
Wind  
Wind Speed 3 mph (West)    
Max Wind Speed 15 mph    
Max Gust Speed 19 mph    
Visibility 10 miles    
Events      
Averages and records for this station are not official NWS values.
T = Trace of Precipitation, MM = Missing Value Source: NWS Daily Summary

Daily Weather History Graph

Daily Weather History Graph

Search for Another Location

Airport or City:

Astronomy

Sep. 21, 2019 Rise Set
Actual Time 7:07 AM EDT 7:19 PM EDT
Civil Twilight 6:40 AM EDT 7:46 PM EDT
Nautical Twilight 6:09 AM EDT 8:18 PM EDT
Astronomical Twilight 5:37 AM EDT 8:49 PM EDT
Moon 11:58 PM EDT 2:09 PM EDT
Length of Visible Light 13h 06m
Length of Day
12h 12m
Waning Gibbous, 55% of the Moon is Illuminated
Sep 21
Waning Gibbous
Sep 21
Last Quarter
Sep 28
New
Oct 5
First Quarter
Oct 13
Full

Hourly Weather History & Observations

Time (EDT) Temp. Heat Index Dew Point Humidity Pressure Visibility Wind Dir Wind Speed Gust Speed Precip Events Conditions
12:53 AM 64.9 °F - 60.1 °F 84% 30.19 in 10.0 mi Calm Calm - N/A   Clear
1:53 AM 64.0 °F - 60.1 °F 87% 30.19 in 10.0 mi Calm Calm - N/A   Clear
2:53 AM 64.9 °F - 60.1 °F 84% 30.19 in 10.0 mi Calm Calm - N/A   Partly Cloudy
3:53 AM 63.0 °F - 59.0 °F 87% 30.19 in 8.0 mi Calm Calm - N/A   Mostly Cloudy
4:53 AM 62.1 °F - 59.0 °F 90% 30.19 in 8.0 mi Calm Calm - N/A   Clear
5:53 AM 63.0 °F - 59.0 °F 87% 30.21 in 9.0 mi Calm Calm - N/A   Partly Cloudy
6:53 AM 62.1 °F - 57.9 °F 86% 30.22 in 7.0 mi Calm Calm - N/A   Clear
7:53 AM 63.0 °F - 57.9 °F 84% 30.23 in 8.0 mi Calm Calm - N/A   Clear
8:53 AM 70.0 °F - 62.1 °F 76% 30.25 in 10.0 mi Calm Calm - N/A   Mostly Cloudy
9:53 AM 75.9 °F - 62.1 °F 62% 30.25 in 10.0 mi SW 5.8 mph - N/A   Partly Cloudy
10:53 AM 81.0 °F 82.2 °F 63.0 °F 54% 30.25 in 10.0 mi SW 5.8 mph - N/A   Clear
11:53 AM 84.9 °F 85.9 °F 63.0 °F 48% 30.23 in 10.0 mi Variable 6.9 mph - N/A   Clear
12:53 PM 86.0 °F 86.8 °F 63.0 °F 46% 30.21 in 10.0 mi WNW 9.2 mph - N/A   Scattered Clouds
1:53 PM 86.0 °F 86.1 °F 61.0 °F 43% 30.19 in 10.0 mi WNW 10.4 mph - N/A   Overcast
2:53 PM 87.1 °F 86.7 °F 60.1 °F 40% 30.16 in 10.0 mi West 8.1 mph - N/A   Clear
3:53 PM 88.0 °F 88.4 °F 62.1 °F 42% 30.15 in 10.0 mi West 9.2 mph - N/A   Partly Cloudy
4:53 PM 84.0 °F 84.5 °F 62.1 °F 47% 30.16 in 10.0 mi WSW 12.7 mph - N/A   Clear
5:53 PM 82.0 °F 83.4 °F 64.0 °F 54% 30.17 in 10.0 mi NW 6.9 mph - N/A   Scattered Clouds
6:53 PM 80.1 °F 81.9 °F 64.9 °F 60% 30.16 in 10.0 mi Calm Calm - N/A   Scattered Clouds
7:53 PM 75.9 °F - 64.9 °F 69% 30.16 in 9.0 mi Calm Calm - N/A   Clear
8:53 PM 75.0 °F - 64.9 °F 71% 30.17 in 10.0 mi Calm Calm - N/A   Clear
9:53 PM 73.0 °F - 64.9 °F 76% 30.18 in 10.0 mi Calm Calm - N/A   Mostly Cloudy
10:53 PM 70.0 °F - 64.9 °F 84% 30.18 in 9.0 mi Calm Calm - N/A   Partly Cloudy
11:53 PM 70.0 °F - 64.9 °F 84% 30.17 in 9.0 mi Calm Calm - N/A   Clear